Voltar ao catálogo

FLOCK 4H 30

AtivoCiênciaSSO
NORAD 66733·PAYLOAD·🇺🇸 United States

Lançado Nov 28, 2025 de Vandenberg Space Force Base

Loading…

Próximas Passagens (próximas 24 horas)

TLE

AtualizadoSource: CelesTrak SupGP

Época: Sep 14, 2026, 06:45 UTC

1 66733C 25276BV  26257.28133102  .00007472  00000+0  33936-3 0  2572
2 66733  97.4162 329.4570 0005710  71.4005 356.8314 15.20833140    14

Acompanhe FLOCK 4H 30 em tempo real com AllMySat

Download on the App Store